Temp
-13 -12 -12 -12 -12 -12 -11 -11 -11 -11 -11 -10 -11 -11 -10 -10 -10 -10 -10 -10 -10 -10 -10 -10 -10 -10 -10 -10 -10 -10 -10 -9 -9 -10 -10 -10 -9 -9 -9 -9 -9 -9 -9
-14 -14 -13 -12 -12 -12 -12 -11 -11 -11 -11 -11 -10 -10 -11 -10 -10 -10 -10 -10 -10 -10 -10 -10 -10 -10 -10 -10 -10 -10 -10 -10 -9 -10 -10 -10 -10 -10 -10 -9 -10 -10 -10
-14 -14 -14 -14 -13 -13 -12 -12 -11 -11 -11 -11 -11 -10 -10 -10 -10 -10 -10 -10 -10 -10 -10 -10 -10 -10 -10 -10 -10 -10 -10 -10 -10 -9 -10 -10 -11 -10 -10 -10 -10 -10 -10
-15 -15 -15 -14 -14 -14 -13 -13 -12 -12 -11 -11 -11 -11 -11 -10 -10 -10 -10 -10 -10 -10 -10 -10 -10 -10 -10 -10 -10 -10 -10 -10 -10 -10 -10 -10 -11 -11 -11 -11 -11 -11 -11
-15 -15 -15 -15 -15 -14 -14 -13 -13 -13 -12 -12 -11 -11 -11 -11 -11 -10 -10 -10 -10 -10 -10 -10 -10 -10 -10 -10 -10 -10 -10 -10 -10 -9 -9 -10 -10 -11 -11 -11 -11 -11 -11
-15 -15 -15 -15 -14 -14 -14 -14 -14 -13 -13 -13 -13 -12 -12 -11 -11 -11 -11 -10 -10 -10 -10 -10 -10 -10 -10 -10 -10 -10 -10 -10 -10 -10 -10 -10 -10 -10 -11 -11 -11 -11 -11
-15 -15 -15 -15 -15 -14 -14 -14 -14 -14 -14 -13 -13 -13 -13 -13 -13 -12 -12 -11 -11 -11 -11 -10 -10 -10 -10 -10 -10 -10 -10 -10 -10 -10 -10 -10 -10 -11 -11 -11 -11 -11 -11
-16 -16 -15 -15 -15 -15 -15 -15 -14 -14 -14 -14 -14 -13 -13 -13 -13 -13 -13 -12 -12 -12 -12 -12 -11 -11 -11 -11 -10 -11 -11 -10 -10 -10 -10 -10 -10 -10 -11 -11 -11 -11 -11
-17 -17 -16 -16 -16 -16 -15 -15 -15 -15 -14 -14 -14 -14 -13 -13 -13 -13 -13 -13 -13 -13 -13 -12 -12 -12 -12 -12 -11 -11 -11 -11 -11 -11 -10 -10 -10 -10 -10 -11 -11 -11 -11
-17 -17 -17 -17 -16 -16 -15 -15 -15 -15 -15 -15 -15 -14 -14 -14 -14 -13 -13 -13 -13 -13 -13 -13 -12 -12 -12 -12 -12 -12 -12 -12 -12 -11 -11 -11 -10 -11 -11 -11 -11 -11 -11
-17 -17 -17 -17 -17 -16 -16 -16 -16 -16 -15 -15 -15 -15 -15 -14 -14 -14 -14 -14 -13 -13 -13 -13 -13 -13 -13 -13 -12 -12 -12 -12 -12 -12 -12 -12 -12 -11 -11 -11 -11 -11 -11
-18 -18 -17 -17 -17 -17 -17 -17 -16 -16 -16 -16 -16 -16 -16 -16 -15 -15 -15 -14 -14 -13 -13 -13 -13 -13 -13 -13 -13 -13 -13 -12 -12 -12 -12 -12 -12 -12 -12 -12 -12 -11 -11
-18 -18 -18 -18 -18 -17 -17 -17 -17 -17 -16 -16 -16 -16 -16 -16 -16 -16 -16 -16 -16 -15 -14 -14 -14 -14 -14 -14 -14 -13 -13 -13 -13 -13 -12 -12 -12 -12 -12 -12 -12 -12 -12
-19 -19 -19 -19 -19 -19 -18 -18 -18 -18 -18 -17 -17 -17 -17 -17 -16 -16 -16 -16 -16 -16 -15 -15 -15 -15 -14 -14 -14 -14 -14 -14 -13 -13 -13 -13 -13 -13 -13 -13 -13 -13 -12
-22 -21 -21 -20 -20 -20 -20 -19 -19 -19 -19 -18 -18 -18 -18 -17 -17 -17 -17 -17 -17 -16 -16 -16 -16 -15 -15 -15 -15 -15 -15 -14 -14 -14 -13 -13 -13 -13 -13 -13 -13 -13 -13
-25 -25 -24 -24 -23 -23 -22 -23 -23 -23 -22 -22 -21 -20 -20 -19 -19 -19 -18 -18 -17 -17 -17 -17 -17 -16 -16 -16 -16 -16 -16 -15 -15 -15 -14 -14 -14 -14 -14 -14 -14 -14 -13
-28 -28 -28 -27 -26 -26 -25 -25 -24 -24 -24 -24 -24 -23 -23 -23 -23 -22 -22 -22 -21 -20 -19 -19 -18 -18 -17 -17 -17 -16 -17 -16 -16 -16 -16 -15 -15 -15 -14 -14 -14 -14 -14
-29 -29 -29 -28 -28 -27 -27 -27 -26 -26 -26 -26 -25 -25 -25 -24 -24 -24 -24 -24 -24 -24 -24 -23 -23 -22 -21 -20 -19 -18 -18 -18 -17 -17 -17 -16 -16 -16 -16 -15 -15 -15 -15
-29 -29 -29 -28 -28 -27 -27 -27 -27 -27 -26 -26 -26 -26 -25 -25 -25 -25 -24 -24 -24 -24 -24 -24 -24 -24 -24 -24 -24 -23 -22 -20 -20 -19 -19 -18 -18 -17 -17 -16 -16 -16 -16
-29 -29 -29 -29 -28 -28 -28 -28 -27 -27 -26 -26 -26 -26 -25 -26 -26 -25 -25 -25 -25 -25 -25 -25 -24 -24 -24 -24 -24 -24 -24 -25 -24 -23 -22 -21 -20 -20 -19 -18 -17 -17 -17
-30 -29 -29 -29 -29 -29 -29 -29 -28 -28 -27 -27 -26 -26 -25 -25 -24 -24 -24 -24 -24 -24 -24 -24 -25 -25 -25 -24 -24 -24 -24 -25 -25 -25 -25 -25 -24 -23 -22 -21 -20 -20 -19
-30 -30 -30 -30 -30 -30 -30 -30 -30 -30 -30 -30 -29 -28 -28 -27 -27 -26 -26 -26 -25 -25 -25 -25 -25 -25 -25 -25 -25 -25 -25 -24 -24 -25 -25 -25 -25 -25 -25 -24 -24 -23 -22
-30 -30 -30 -30 -31 -31 -31 -31 -31 -31 -31 -31 -31 -31 -31 -30 -30 -30 -30 -29 -29 -29 -29 -28 -27 -27 -26 -25 -25 -25 -25 -25 -25 -25 -25 -25 -25 -25 -25 -25 -26 -26 -25
-31 -31 -31 -32 -32 -32 -32 -32 -32 -32 -32 -32 -32 -32 -32 -32 -32 -32 -31 -31 -31 -31 -30 -30 -29 -29 -29 -29 -28 -27 -27 -26 -25 -25 -25 -24 -25 -25 -25 -25 -25 -25 -25
-31 -32 -32 -32 -32 -32 -33 -32 -32 -33 -33 -33 -33 -33 -33 -33 -33 -33 -32 -32 -32 -32 -32 -32 -32 -31 -31 -30 -30 -29 -29 -28 -27 -26 -25 -25 -25 -25 -25 -25 -25 -25 -25
-32 -32 -32 -32 -32 -33 -33 -33 -33 -33 -33 -33 -33 -34 -33 -33 -33 -33 -33 -32 -32 -32 -32 -32 -32 -32 -32 -32 -31 -30 -30 -30 -29 -29 -27 -26 -25 -25 -25 -25 -25 -25 -24
Height
5767 5768 5769 5770 5771 5772 5774 5776 5779 5781 5784 5786 5788 5789 5791 5793 5794 5796 5798 5799 5800 5801 5802 5804 5806 5809 5811 5813 5815 5817 5818 5820 5824 5828 5827 5827 5828 5828 5829 5830 5831 5832 5833
5759 5758 5758 5759 5760 5761 5762 5764 5766 5769 5771 5774 5776 5777 5779 5781 5782 5784 5786 5787 5789 5791 5793 5794 5795 5795 5797 5799 5801 5804 5807 5808 5810 5816 5816 5816 5816 5815 5816 5818 5819 5821 5822
5747 5747 5748 5748 5748 5749 5750 5752 5753 5755 5757 5760 5762 5764 5766 5768 5770 5772 5774 5775 5777 5779 5780 5782 5783 5784 5786 5787 5788 5790 5792 5793 5795 5798 5805 5805 5805 5803 5803 5804 5807 5808 5810
5734 5734 5735 5736 5737 5738 5738 5739 5740 5742 5744 5745 5748 5749 5751 5753 5756 5758 5760 5762 5763 5764 5766 5768 5769 5771 5772 5773 5773 5775 5776 5778 5781 5783 5787 5791 5792 5792 5790 5792 5792 5793 5794
5720 5721 5722 5723 5723 5724 5725 5726 5727 5728 5729 5731 5733 5734 5736 5738 5739 5742 5744 5746 5748 5749 5751 5752 5754 5755 5757 5758 5759 5760 5761 5763 5765 5767 5770 5771 5775 5778 5778 5777 5775 5776 5777
5705 5706 5707 5708 5709 5710 5711 5711 5712 5713 5714 5716 5717 5719 5719 5721 5722 5724 5727 5728 5730 5732 5734 5736 5738 5739 5740 5741 5743 5744 5746 5747 5749 5750 5753 5755 5757 5758 5760 5761 5761 5760 5762
5690 5691 5692 5692 5693 5693 5694 5695 5696 5698 5699 5700 5701 5702 5704 5704 5705 5706 5708 5711 5712 5714 5716 5718 5720 5721 5722 5723 5724 5726 5728 5730 5732 5733 5735 5737 5738 5739 5739 5740 5741 5743 5745
5673 5674 5674 5675 5676 5676 5677 5677 5679 5680 5681 5683 5684 5684 5686 5687 5688 5689 5691 5692 5694 5696 5698 5699 5701 5702 5702 5703 5706 5708 5710 5711 5714 5714 5716 5718 5718 5719 5719 5719 5720 5722 5726
5655 5655 5655 5655 5657 5658 5659 5660 5660 5662 5663 5664 5665 5667 5667 5669 5669 5671 5672 5674 5676 5677 5679 5680 5682 5683 5683 5683 5685 5688 5689 5692 5691 5692 5695 5697 5698 5699 5699 5698 5701 5701 5706
5635 5635 5636 5636 5637 5638 5639 5641 5641 5642 5643 5644 5645 5646 5647 5648 5649 5650 5651 5653 5656 5658 5659 5660 5661 5662 5663 5664 5665 5667 5670 5670 5669 5671 5673 5675 5676 5677 5677 5678 5679 5679 5682
5615 5615 5616 5616 5617 5619 5619 5619 5620 5621 5622 5624 5625 5626 5626 5626 5628 5629 5629 5630 5632 5635 5638 5640 5640 5640 5641 5643 5644 5646 5647 5647 5649 5651 5653 5654 5655 5655 5655 5654 5656 5657 5660
5595 5595 5595 5595 5596 5598 5599 5600 5600 5601 5602 5602 5603 5604 5605 5605 5604 5604 5606 5608 5609 5611 5613 5615 5616 5617 5618 5619 5620 5621 5622 5623 5626 5629 5631 5634 5634 5634 5632 5631 5633 5635 5638
5574 5574 5573 5574 5575 5575 5576 5577 5578 5579 5580 5581 5581 5582 5583 5582 5582 5584 5584 5584 5584 5585 5586 5588 5590 5591 5593 5594 5594 5594 5595 5597 5600 5604 5607 5610 5610 5610 5610 5611 5611 5611 5615
5557 5555 5553 5553 5553 5554 5554 5555 5555 5555 5556 5556 5557 5558 5558 5558 5558 5559 5559 5559 5560 5560 5560 5561 5563 5564 5565 5567 5569 5569 5569 5570 5573 5577 5580 5583 5584 5585 5587 5587 5588 5588 5590
5538 5537 5536 5534 5532 5533 5533 5533 5533 5533 5532 5532 5531 5531 5532 5532 5532 5531 5531 5532 5533 5535 5534 5534 5534 5535 5538 5539 5541 5542 5542 5544 5546 5548 5552 5555 5557 5557 5560 5559 5562 5563 5566
5520 5519 5519 5517 5515 5514 5515 5514 5513 5512 5511 5510 5510 5508 5506 5505 5504 5503 5503 5502 5504 5504 5504 5505 5506 5506 5507 5509 5511 5512 5513 5514 5516 5518 5522 5525 5526 5528 5532 5533 5534 5536 5540
5512 5511 5510 5508 5506 5505 5503 5501 5500 5499 5497 5495 5492 5490 5488 5487 5485 5482 5479 5476 5476 5476 5475 5474 5475 5476 5478 5478 5479 5481 5483 5483 5484 5487 5490 5494 5496 5499 5501 5504 5506 5508 5513
5509 5507 5506 5503 5501 5499 5497 5495 5493 5490 5486 5482 5480 5477 5474 5472 5469 5467 5465 5461 5458 5455 5454 5451 5449 5447 5447 5447 5448 5450 5450 5450 5452 5454 5457 5461 5464 5466 5470 5474 5476 5478 5482
5504 5502 5499 5496 5494 5491 5489 5486 5483 5480 5477 5474 5470 5466 5463 5459 5455 5452 5449 5446 5443 5440 5437 5434 5432 5429 5426 5424 5422 5421 5420 5420 5420 5421 5424 5428 5430 5432 5438 5442 5445 5448 5452
5499 5495 5492 5488 5485 5482 5478 5475 5472 5468 5465 5461 5458 5454 5451 5447 5443 5439 5436 5432 5428 5424 5421 5417 5414 5411 5408 5406 5404 5401 5399 5397 5395 5394 5394 5396 5398 5399 5404 5410 5413 5416 5420
5492 5488 5484 5481 5477 5472 5468 5464 5460 5456 5452 5447 5442 5437 5433 5430 5426 5421 5418 5414 5410 5407 5403 5400 5397 5393 5390 5387 5384 5382 5381 5379 5377 5376 5374 5373 5372 5372 5374 5379 5382 5384 5387
5484 5480 5475 5471 5466 5462 5457 5453 5448 5443 5438 5433 5428 5422 5417 5412 5407 5402 5398 5393 5389 5384 5381 5378 5375 5372 5370 5367 5365 5363 5361 5359 5359 5358 5358 5357 5355 5354 5352 5353 5355 5356 5358
5475 5470 5466 5461 5456 5452 5448 5444 5439 5434 5428 5422 5416 5410 5404 5397 5391 5385 5379 5374 5369 5364 5360 5355 5352 5349 5346 5344 5342 5341 5340 5339 5338 5337 5338 5338 5337 5336 5335 5336 5335 5335 5335
5464 5459 5455 5452 5448 5444 5440 5435 5429 5423 5416 5409 5402 5395 5389 5382 5376 5370 5364 5358 5352 5346 5341 5336 5332 5329 5325 5323 5320 5319 5317 5317 5317 5318 5318 5318 5318 5317 5317 5317 5317 5318 5319
5454 5451 5448 5444 5440 5435 5430 5425 5419 5412 5405 5397 5389 5382 5375 5369 5362 5356 5350 5344 5338 5332 5326 5320 5315 5311 5307 5303 5300 5298 5296 5295 5296 5296 5298 5299 5299 5298 5298 5299 5299 5300 5302
5446 5443 5440 5436 5431 5425 5420 5414 5408 5401 5393 5385 5377 5369 5362 5356 5349 5342 5336 5330 5324 5318 5311 5305 5300 5295 5291 5287 5282 5280 5278 5276 5276 5276 5277 5279 5280 5280 5280 5281 5281 5282 5284
Wind_Speed
40 42 44 46 47 47 51 52 52 50 49 48 47 45 43 43 42 40 40 38 36 34 35 38 42 42 42 43 44 44 45 46 45 43 45 47 47 47 46 45 44 42 39
39 41 43 46 49 49 51 54 55 55 54 52 51 50 49 47 46 45 45 43 42 41 40 40 41 45 47 48 48 48 48 50 49 45 46 48 49 50 49 47 45 43 40
41 42 43 45 47 50 51 54 56 58 58 57 56 55 54 53 52 50 49 49 48 48 47 46 45 45 47 50 52 53 52 53 53 52 48 49 50 52 53 51 49 47 44
44 44 45 45 46 48 50 53 55 58 60 61 61 60 60 59 57 56 55 54 53 53 53 53 53 52 52 51 52 54 57 58 58 56 55 52 53 54 57 55 54 53 52
52 50 50 49 48 48 49 52 54 55 57 60 62 63 64 64 63 62 61 61 60 59 59 58 58 58 58 58 57 57 58 58 59 60 61 61 58 57 58 60 61 60 59
54 54 54 55 54 54 53 53 53 54 56 57 57 58 61 64 66 66 66 66 65 65 64 64 64 64 64 64 64 64 63 63 62 61 61 62 63 65 64 64 64 65 65
58 57 56 56 56 57 57 58 58 57 56 56 56 56 57 58 61 63 64 65 66 67 68 68 68 69 69 69 69 69 69 69 68 68 66 65 66 67 69 70 70 70 69
61 61 61 61 61 60 60 60 60 60 60 59 59 60 59 59 60 60 61 62 63 64 65 66 68 68 70 72 73 73 73 73 73 74 73 72 72 72 72 72 74 74 73
62 64 65 66 65 64 64 63 63 63 63 64 63 63 63 62 63 64 64 63 63 63 64 64 64 65 66 70 71 72 74 75 77 77 77 77 77 78 77 77 75 75 74
59 59 60 61 62 64 65 65 66 66 66 66 66 67 68 68 67 68 69 69 68 68 67 67 68 68 68 68 68 69 71 70 73 75 76 77 78 79 80 81 80 80 78
63 63 62 62 61 60 60 61 61 62 63 64 65 66 69 70 71 71 73 73 74 74 74 73 73 73 73 72 71 71 71 71 71 72 72 73 75 77 79 80 81 81 81
65 65 65 65 64 62 62 62 62 63 63 63 64 64 64 66 68 70 72 74 76 77 77 77 77 78 78 78 78 78 77 77 76 75 74 73 73 73 75 77 79 80 79
67 66 66 65 64 65 65 66 66 66 67 68 68 68 69 69 70 71 71 72 74 75 77 78 78 79 79 79 81 82 82 83 83 82 80 79 78 78 78 78 78 78 76
66 68 68 66 66 65 65 66 67 68 69 70 71 72 73 74 74 74 74 76 76 77 79 81 81 81 81 81 82 82 84 85 85 85 85 85 84 84 83 83 82 82 81
56 58 60 61 61 60 59 60 61 62 64 66 68 71 72 73 76 78 79 79 79 79 80 82 83 84 85 85 85 85 85 86 86 87 87 87 87 87 87 87 86 86 85
32 33 35 37 40 43 42 40 41 42 45 48 53 57 61 64 66 68 71 75 78 80 80 82 84 86 88 88 87 87 89 89 89 89 89 89 90 90 90 90 90 89 87
5 7 13 19 23 25 30 34 37 37 38 39 40 40 42 43 45 47 49 54 62 69 74 78 81 84 86 88 90 92 92 92 93 92 92 91 91 92 92 92 92 93 91
9 11 13 15 18 21 23 25 27 29 30 33 36 38 40 42 44 46 47 47 46 44 44 47 52 62 74 80 84 89 92 94 95 96 96 96 95 94 94 93 93 93 93
18 20 21 21 22 23 24 26 27 29 32 33 35 37 39 41 43 44 46 48 49 50 51 51 50 49 48 49 53 60 71 80 86 91 93 96 97 98 98 96 95 94 93
23 26 28 27 26 27 28 31 33 35 37 39 40 41 43 43 44 46 47 48 48 50 50 51 52 53 53 54 54 52 51 53 59 65 71 78 84 90 95 97 97 97 96
27 30 31 33 34 35 36 38 40 41 43 45 47 49 50 51 53 55 56 56 55 55 55 54 53 54 54 53 55 56 56 53 51 51 52 56 64 72 76 80 87 92 95
31 35 36 39 40 39 39 39 41 43 44 47 49 52 54 57 59 60 61 62 64 65 65 62 60 59 57 58 57 55 56 57 56 56 53 52 51 51 55 62 67 73 81
37 39 40 38 35 34 35 37 39 42 45 48 51 52 54 55 56 58 59 58 58 58 59 60 61 60 61 61 60 60 59 56 55 56 55 55 55 54 54 51 50 54 58
41 37 31 28 28 30 32 37 43 48 51 53 54 55 55 55 54 54 54 54 53 53 54 54 54 55 54 54 58 59 59 59 58 54 54 56 56 55 55 53 52 51 47
32 25 25 27 29 33 37 41 46 51 54 55 55 55 53 52 51 49 49 48 48 47 47 47 47 48 50 52 53 54 55 56 57 57 55 54 53 54 52 51 51 51 50
25 26 29 32 36 39 42 45 49 54 56 56 55 54 52 50 49 49 49 48 48 47 46 45 45 45 44 46 49 51 52 52 52 53 55 53 50 49 49 47 45 45 45
Wind_Direction
250 249 249 250 250 249 245 245 247 248 249 253 255 252 249 250 250 251 251 251 250 248 247 246 247 247 248 248 247 247 247 248 246 247 252 256 258 261 262 263 265 266 267
254 251 249 249 251 251 247 246 247 249 250 251 253 256 256 252 251 251 251 250 250 252 252 250 247 246 246 247 249 250 251 253 252 250 252 256 261 261 262 264 265 265 266
257 256 255 251 249 249 249 247 246 248 251 252 253 254 256 258 256 253 253 253 253 252 251 251 251 252 251 250 250 252 253 254 255 255 253 255 258 262 263 263 263 264 266
256 257 255 256 256 255 252 251 249 248 249 251 253 254 256 256 257 259 257 256 254 254 253 254 253 252 252 252 252 253 253 254 255 256 257 255 256 257 262 264 265 264 263
258 256 255 257 258 258 258 257 255 254 252 252 252 253 254 256 257 257 258 260 259 257 255 254 253 253 254 255 254 255 255 256 257 258 258 257 256 255 257 258 262 264 265
261 260 258 257 257 258 258 258 258 258 258 258 257 257 257 256 256 256 257 258 258 258 259 258 256 255 254 254 255 255 256 258 259 259 259 260 259 257 254 255 257 260 263
265 266 265 263 260 258 258 257 258 258 258 258 258 258 259 261 260 259 258 257 257 258 258 258 258 258 257 256 256 256 256 257 258 260 261 262 261 261 260 257 256 257 259
265 265 266 266 266 266 265 263 261 260 259 259 259 259 258 258 259 260 261 261 260 259 258 258 258 259 259 259 259 258 258 258 259 259 259 259 261 262 263 263 261 260 260
266 266 265 266 266 265 266 267 266 265 264 262 261 260 260 260 260 260 260 260 261 261 262 262 261 261 261 260 259 259 260 261 260 260 260 260 261 261 262 263 264 265 265
270 269 269 269 268 267 266 267 266 266 266 266 266 264 263 262 262 261 261 261 260 260 260 260 261 261 261 262 263 263 262 261 261 261 262 261 261 261 262 263 263 264 265
272 272 271 270 269 269 268 268 267 267 267 266 266 266 266 266 265 264 264 262 261 260 260 260 261 261 261 261 261 262 262 262 263 263 262 262 263 263 263 263 262 263 264
272 271 271 271 270 269 268 267 267 267 267 267 267 266 266 266 267 266 266 266 265 264 262 261 261 261 261 261 262 261 261 261 261 261 262 263 264 264 265 265 265 265 265
274 275 275 274 274 273 272 271 270 269 268 268 268 268 268 267 266 266 265 265 265 266 266 265 264 263 262 262 262 261 261 261 261 261 260 260 260 261 262 263 265 266 267
272 274 276 277 277 277 276 275 275 275 274 273 271 270 270 269 269 269 268 267 266 266 265 265 264 264 263 262 262 262 262 262 262 261 261 261 261 261 261 261 261 262 264
278 277 276 278 278 278 278 277 276 275 275 274 274 274 273 272 271 270 269 268 267 266 264 265 265 265 264 264 263 262 262 262 262 262 261 261 261 261 261 262 262 262 263
270 270 269 269 269 270 270 271 272 274 275 274 272 272 272 272 271 270 268 268 268 266 265 263 263 263 264 264 263 262 262 262 261 261 260 260 260 260 260 260 261 262 263
225 258 266 268 271 272 277 279 280 279 280 281 281 281 280 279 278 278 279 278 273 270 267 266 264 262 260 260 261 261 261 261 261 260 260 260 260 260 259 259 260 260 260
323 313 295 285 280 280 281 282 283 286 289 289 288 288 287 287 287 285 283 284 287 286 283 281 277 273 268 265 262 259 259 259 258 258 259 259 259 259 259 259 259 259 259
323 323 318 307 294 288 287 287 286 286 286 287 289 289 289 290 289 289 289 288 285 283 282 281 282 283 282 279 275 270 266 263 261 260 258 257 257 258 258 258 258 258 259
322 326 327 324 316 311 307 304 301 297 293 291 290 288 287 287 287 287 287 287 285 284 283 284 283 280 279 277 277 278 278 276 270 265 262 260 259 257 256 256 256 257 257
321 323 321 319 316 313 311 310 308 307 305 302 301 299 296 291 288 288 287 286 287 286 283 281 278 278 278 278 277 275 274 273 274 275 274 268 262 259 257 256 257 257 257
316 318 316 315 315 314 314 313 312 311 311 310 307 305 302 300 298 296 294 292 290 288 285 283 281 279 276 274 274 275 274 272 272 271 272 273 273 272 269 263 258 256 256
312 314 314 313 313 314 316 317 318 317 315 312 310 307 306 304 302 301 301 300 297 294 292 290 287 283 279 274 272 270 271 272 271 270 270 271 272 272 272 271 270 263 259
312 312 311 312 314 316 318 321 323 324 321 317 314 312 310 309 308 306 304 303 302 300 295 292 288 286 284 281 276 273 270 268 269 270 268 269 269 270 270 270 269 267 263
308 306 308 311 314 316 319 321 323 325 325 320 316 313 312 311 310 308 306 305 303 302 300 298 295 291 287 281 279 277 275 272 268 266 267 269 269 268 267 269 267 267 267
302 306 309 315 318 320 320 319 321 324 325 321 316 313 311 310 310 309 307 306 305 303 301 299 297 295 293 289 284 277 275 274 272 270 266 265 268 269 268 267 266 265 264